Location: Norton
(51.3000°N, 0.8167°E)
Time: 16:44:08
(UTC+00:00)

Cosmos 2278 Rocket - Pass Details

Date: 03 March 2021
Orbit: 841 x 845 km, 71.0° (Epoch: 13 April)

Event Time Altitude Azimuth Distance (km) Brightness Sun altitude
Rises 18:38:04 0° 330° (NNW) 3,417 5.8 -9.7°
Reaches altitude 10° 18:41:03 10° 345° (NNW) 2,478 4.9 -10.2°
Maximum altitude 18:45:32 23° 37° (NE) 1,721 3.5 -10.9°
Enters shadow 18:48:53 14° 81° (E) 2,175 3.7 -11.4°
